Temperature
22 22 21 22 25 27 26 29 32 33 33 32 32 31 29 28 27 25 25 24 22 22 22 22 21 21 20 20 20 20 19 19 19 19 19 19 19 19 19 19 19 19 19 19 19 19 19 19 19
22 21 22 25 27 26 25 27 30 33 33 33 32 31 29 27 26 25 24 23 22 22 22 22 21 21 20 20 20 20 19 19 19 19 19 19 19 19 19 19 19 19 19 19 19 19 19 19 19
22 22 25 29 29 28 27 29 32 33 33 33 32 30 28 27 26 25 24 23 21 21 21 22 21 21 20 20 20 20 19 19 19 19 19 19 19 19 19 19 19 19 19 19 19 19 19 19 19
22 25 27 30 30 31 31 32 32 33 32 32 31 28 26 25 25 24 23 23 21 21 21 21 21 20 20 20 20 20 19 19 19 19 19 19 19 19 19 19 19 19 19 19 19 19 19 19 19
24 27 29 30 30 30 32 33 33 32 30 31 30 27 25 24 24 24 23 22 21 20 21 21 21 20 20 20 20 20 19 19 19 19 19 19 19 19 19 19 19 19 19 19 19 19 19 19 19
26 29 30 30 31 31 32 31 32 30 28 28 27 26 24 24 24 24 23 23 22 20 21 21 21 20 20 20 20 19 19 19 19 19 19 19 19 19 19 19 19 19 19 19 19 19 19 19 19
27 29 30 31 32 32 33 32 32 30 29 29 28 26 24 24 24 24 24 23 22 21 21 21 21 20 20 20 20 19 19 19 19 19 19 19 19 19 19 19 19 19 19 18 18 18 18 19 19
28 30 30 31 32 32 33 32 31 31 30 30 29 27 24 23 23 24 24 23 22 21 20 20 20 20 20 20 20 19 19 19 19 19 19 19 19 19 19 19 18 18 18 18 18 18 18 18 19
29 29 29 31 32 32 32 31 31 30 29 28 27 26 23 23 23 23 23 23 22 21 21 20 19 20 19 19 19 20 20 19 19 19 19 19 19 18 18 18 18 18 18 18 18 18 18 18 18
30 29 30 32 32 32 31 31 30 30 29 26 24 23 23 22 23 23 23 23 22 21 21 20 20 20 19 19 19 19 19 19 19 18 18 18 18 18 18 18 18 18 18 18 18 18 18 18 18
31 30 31 32 32 31 31 31 30 29 25 22 22 22 23 23 23 23 23 22 21 21 21 20 20 20 19 19 19 19 19 19 18 18 18 18 18 18 18 18 18 18 18 18 18 18 17 17 18
31 31 31 31 31 31 31 30 28 25 22 21 21 22 23 23 23 23 22 22 21 21 21 20 20 20 19 19 19 19 19 18 18 18 18 18 18 18 18 17 17 17 17 17 17 17 17 17 17
31 31 31 31 30 30 31 29 27 23 22 22 22 23 24 24 23 23 22 22 21 21 20 20 20 19 19 19 19 19 18 18 18 18 18 18 17 17 17 17 17 17 17 17 17 17 17 17 17
31 31 30 30 30 30 30 29 27 23 23 22 22 23 24 24 23 22 22 21 21 20 20 20 19 19 19 19 19 19 18 18 18 17 17 17 17 17 17 17 17 17 17 16 16 16 16 16 17
30 30 29 29 29 28 29 27 25 24 23 23 23 23 23 22 22 22 21 20 20 20 20 19 19 19 19 18 18 18 18 18 17 17 17 17 17 16 16 16 16 16 16 16 16 16 16 16 16
30 29 27 28 28 28 28 24 21 22 23 24 24 23 22 22 22 21 21 20 20 19 19 19 18 18 18 18 18 18 18 17 17 17 17 16 16 16 16 15 15 15 15 15 15 15 15 15 15
28 27 26 27 28 28 27 22 21 22 22 23 23 23 22 21 21 20 20 20 19 19 19 19 18 18 18 18 18 18 18 17 17 16 16 16 16 15 15 15 15 15 15 15 15 15 15 15 15
28 28 28 27 28 28 26 22 21 22 23 23 23 23 22 21 21 20 20 19 19 18 18 18 18 18 18 18 18 17 17 17 17 16 16 16 15 15 15 14 14 14 14 14 14 14 14 14 14
30 29 27 28 29 28 26 24 22 22 22 23 23 23 22 22 21 20 19 19 19 18 18 18 18 18 18 17 17 17 17 17 17 16 16 15 15 14 14 14 14 13 13 13 13 13 13 13 14
30 29 28 28 29 28 26 24 23 23 23 23 23 23 22 21 20 20 19 19 19 18 18 18 18 18 18 17 17 17 17 17 16 16 16 15 14 14 13 13 13 13 13 13 13 13 13 13 13
29 28 29 29 29 28 26 23 23 23 23 23 24 23 22 21 20 20 20 20 19 19 19 18 18 18 18 17 17 17 16 16 16 16 15 15 14 14 13 13 12 12 12 12 12 13 12 12 13
29 30 30 29 28 25 25 22 22 22 23 23 24 23 23 22 21 21 20 20 19 19 19 19 18 18 18 17 17 16 16 16 16 16 15 15 14 13 13 12 12 12 12 12 12 12 12 12 12
30 30 29 27 25 24 24 23 23 23 23 24 24 24 24 23 22 21 21 21 20 20 19 19 18 18 18 17 17 16 16 16 15 15 15 14 14 13 13 13 12 12 11 11 11 12 12 12 12
31 29 26 24 22 21 24 24 24 24 24 25 25 25 24 24 23 22 22 21 21 20 20 19 18 18 18 17 16 16 15 15 15 15 14 14 14 14 13 13 12 12 11 11 11 11 11 11 11
30 27 24 22 21 21 25 26 26 27 28 27 26 25 25 24 24 23 22 22 21 21 20 19 19 18 17 17 16 15 15 15 14 14 14 13 13 13 13 13 12 12 11 11 11 11 11 11 11
29 28 26 25 25 25 26 26 27 29 29 28 27 26 26 25 24 24 23 22 22 21 20 20 19 18 17 16 16 15 15 14 14 14 14 13 13 13 13 12 12 11 11 11 11 11 11 11 11
29 29 29 28 28 26 25 27 27 29 28 28 28 27 26 25 25 24 23 23 22 21 20 20 18 17 17 16 16 15 15 14 14 14 13 13 13 12 12 12 12 11 11 11 11 11 11 11 11
30 30 29 28 26 25 24 24 26 27 28 28 28 27 27 26 25 25 24 23 22 21 20 19 18 17 17 16 15 15 15 14 14 13 13 12 12 12 12 12 11 11 11 11 11 11 11 11 11
29 29 29 29 28 26 24 23 27 28 28 29 28 28 27 27 26 25 24 23 22 21 20 19 18 17 16 16 15 15 14 14 13 13 13 12 12 12 12 11 11 11 11 11 11 11 11 11 11
29 29 29 28 27 28 26 26 29 29 30 29 29 28 28 27 26 25 24 23 22 21 20 19 18 17 17 16 15 15 14 14 13 13 12 12 12 12 11 11 11 11 11 11 11 11 11 10 10
Wind_Speed
11 12 10 8 6 6 7 6 6 8 9 11 12 14 18 15 12 13 14 22 24 20 19 18 17 15 14 14 13 13 13 13 13 12 12 11 10 10 9 9 8 8 9 9 9 9 9 9 8
11 12 10 7 8 4 3 5 4 6 8 9 12 17 19 15 15 15 17 21 23 20 18 18 17 16 15 14 14 14 14 13 13 12 11 11 10 9 8 8 7 7 8 8 7 8 8 8 7
13 14 8 8 12 7 5 2 3 3 5 7 11 14 12 11 13 13 17 21 21 19 19 19 17 16 15 14 14 14 14 13 12 12 11 10 9 8 7 7 6 6 6 6 6 6 6 6 5
8 9 7 11 14 7 4 1 2 3 5 5 13 13 10 8 12 16 19 21 21 19 19 18 17 16 15 14 13 13 13 12 11 11 10 9 8 7 6 5 5 5 5 5 5 5 5 5 4
10 8 12 14 13 7 6 6 3 4 3 3 13 14 12 11 17 19 18 20 19 19 19 18 17 16 14 13 12 12 11 10 10 9 8 7 6 6 5 4 4 4 4 4 4 4 4 3 3
8 10 14 14 11 5 3 4 2 7 5 5 13 15 9 11 15 17 18 17 19 20 19 18 16 15 13 12 11 10 9 9 8 7 6 6 5 4 4 4 3 3 3 3 3 3 3 3 2
12 13 17 18 13 8 5 3 1 4 5 7 11 13 11 12 14 15 15 15 18 20 18 16 15 14 12 11 10 9 8 7 7 6 5 5 5 5 5 4 4 3 3 4 3 3 4 4 4
12 12 18 18 14 8 2 2 1 2 3 5 9 11 13 14 13 14 14 15 18 18 16 15 15 14 13 12 11 10 9 8 7 6 6 6 6 7 7 7 7 5 4 4 4 5 5 6 7
12 12 15 15 11 4 2 3 3 1 3 6 9 15 20 18 15 15 14 14 13 14 13 13 13 12 12 13 13 12 10 9 8 7 7 7 7 7 9 7 7 7 6 5 5 6 7 7 10
10 12 14 11 10 7 3 5 7 5 4 11 16 20 22 17 15 14 14 14 13 12 12 11 9 8 8 9 11 9 9 9 7 5 6 6 4 2 1 5 6 6 6 6 7 7 8 9 9
10 11 12 12 9 8 8 8 8 5 5 10 12 13 17 17 14 13 13 13 12 10 9 11 9 6 4 5 7 4 5 7 4 3 2 1 2 2 2 2 3 4 5 4 4 6 7 6 6
8 10 10 11 11 10 11 8 3 9 11 12 9 9 14 16 15 14 13 13 12 9 8 8 9 7 5 5 3 3 3 3 3 4 4 4 1 2 3 2 2 2 2 2 3 3 4 5 6
9 9 9 9 10 11 10 5 4 11 15 13 11 10 12 13 13 13 13 12 11 9 8 9 8 8 5 4 3 3 3 3 4 5 5 5 2 2 2 2 2 4 3 1 1 2 3 4 6
9 9 10 10 10 9 9 4 3 10 15 15 14 12 11 11 11 11 11 10 10 9 8 8 7 7 5 3 2 1 2 3 5 5 5 4 4 3 2 2 1 2 2 2 3 3 3 4 4
9 10 10 9 10 8 8 2 4 4 10 12 12 11 11 10 11 11 11 9 9 8 8 7 7 7 5 4 2 2 1 4 4 5 6 6 6 5 4 2 1 2 3 3 4 4 4 4 5
12 10 8 9 10 8 6 0 5 9 3 7 9 11 10 8 10 10 11 9 9 9 8 6 7 8 6 4 1 2 3 4 3 4 7 7 5 5 5 3 3 5 6 4 3 3 3 3 4
9 7 8 7 9 6 2 3 4 10 8 6 8 10 10 9 9 10 10 10 9 8 8 7 8 7 6 5 2 3 4 3 2 4 7 6 5 5 5 4 3 5 4 3 5 3 3 4 5
10 7 4 4 4 4 2 8 7 9 10 9 10 11 9 10 10 10 9 10 9 9 8 8 8 6 5 4 2 2 3 2 2 3 6 5 4 5 5 4 4 5 4 4 5 5 4 4 5
10 8 7 7 5 5 2 7 9 10 10 8 10 11 11 10 11 10 10 10 10 9 8 7 7 6 3 2 1 1 1 0 1 2 6 4 2 4 4 3 4 4 4 4 5 5 6 6 5
10 10 8 4 4 4 2 2 5 7 7 5 8 11 12 11 10 10 10 10 11 9 8 8 7 7 4 3 1 1 0 1 1 2 3 3 1 2 4 3 4 5 5 5 5 4 4 6 6
8 9 10 8 4 1 2 2 1 2 3 4 7 11 13 13 12 12 11 11 11 10 9 9 8 7 5 3 2 1 0 2 2 1 1 2 1 2 2 3 3 4 5 5 5 4 5 5 6
8 7 9 10 6 2 2 1 3 6 6 7 8 10 13 13 13 13 13 12 12 11 10 8 8 6 5 3 2 2 3 3 2 1 0 1 1 3 3 3 3 3 4 6 6 5 5 5 5
9 7 8 10 8 4 3 1 4 7 8 10 11 12 13 14 14 14 14 12 11 11 11 9 8 7 5 4 3 3 3 3 3 4 3 2 3 4 4 4 2 2 4 5 5 5 5 5 6
8 6 7 8 6 5 8 4 5 8 11 13 13 13 12 14 14 14 13 12 10 10 9 10 9 7 6 5 4 3 3 3 4 5 5 4 3 3 3 3 2 2 3 4 5 5 6 5 6
8 6 3 2 1 6 10 3 6 9 9 12 14 15 14 14 14 13 12 12 10 9 9 9 10 8 7 6 5 3 1 2 5 6 5 3 3 3 2 2 2 2 4 5 5 5 6 6 7
8 7 5 7 5 2 2 3 9 10 9 10 13 14 14 14 12 12 11 10 10 10 9 9 10 8 7 6 4 2 1 3 4 3 4 4 4 4 3 2 3 4 5 6 5 5 6 6 6
8 7 9 10 9 4 1 4 11 10 10 10 12 13 14 14 14 13 13 12 11 10 8 8 9 7 5 4 4 4 4 4 4 3 4 4 3 5 5 4 5 5 5 6 6 6 7 7 7
7 9 7 7 5 4 4 4 3 9 11 11 11 12 13 13 13 13 12 11 10 9 8 8 8 7 5 4 4 4 3 3 4 4 4 4 5 5 5 6 6 6 6 6 6 6 7 7 7
8 8 6 7 7 6 2 1 6 7 8 11 12 12 12 13 13 12 10 10 10 9 9 8 8 7 6 5 4 2 2 3 3 4 5 5 5 5 6 6 6 7 7 7 7 7 8 8 8
10 9 6 6 6 7 4 1 4 4 6 9 10 12 12 11 11 12 12 11 10 9 10 9 9 8 7 6 5 4 4 4 5 6 5 4 5 5 6 6 6 7 8 7 7 8 8 8 8
Wind_Direction
205 226 231 248 245 244 298 321 37 65 70 66 57 71 75 58 73 98 113 109 112 117 121 116 110 107 108 113 119 122 124 123 120 119 118 117 115 112 109 104 98 92 87 83 80 80 80 79 78
224 231 237 246 249 245 286 304 16 68 88 97 81 79 79 71 83 107 111 115 116 122 127 119 115 111 109 111 115 118 120 121 122 122 123 123 122 119 115 111 105 99 93 89 86 87 86 85 83
241 248 257 250 256 251 189 228 73 84 100 105 90 73 71 85 99 110 119 121 118 118 117 119 119 116 113 114 116 118 120 122 123 124 125 126 125 123 120 117 113 108 102 97 92 96 95 94 90
241 236 243 256 272 293 297 81 55 107 103 122 111 90 83 70 107 120 128 121 118 121 121 122 122 119 118 118 118 120 122 125 127 128 130 131 131 130 128 123 120 116 110 107 104 106 107 108 107
242 257 251 263 277 294 313 332 8 72 77 85 96 99 95 89 109 126 129 124 129 125 123 125 124 123 122 122 123 123 126 129 131 132 135 138 140 142 141 139 133 122 120 121 118 118 125 132 140
250 257 265 267 264 255 261 318 21 78 93 86 102 109 99 112 124 132 131 136 132 126 125 127 128 128 128 129 130 130 133 135 139 142 146 150 154 161 166 167 163 154 150 147 150 153 157 169 189
260 278 280 281 274 252 235 251 193 127 167 146 133 116 130 134 132 136 136 135 128 125 128 137 138 138 139 140 141 142 145 149 154 161 166 173 181 188 193 195 189 183 176 180 190 198 201 204 215
263 281 281 278 274 269 247 288 302 138 164 128 123 129 141 140 142 137 136 132 126 129 136 143 146 149 156 155 156 158 163 166 174 182 188 199 211 214 216 212 200 200 204 204 212 222 223 222 224
257 263 270 281 290 282 44 305 281 248 153 84 70 113 131 139 140 140 139 130 122 126 133 141 144 155 166 164 161 169 176 182 190 197 206 218 236 231 216 218 192 200 214 223 228 235 237 235 235
245 260 274 300 322 326 330 280 264 229 143 94 87 102 122 134 143 146 143 135 128 128 131 131 138 141 154 153 150 174 177 177 197 186 193 219 258 280 190 157 181 203 220 231 235 239 244 242 244
259 271 291 305 312 303 293 276 266 242 75 70 86 116 132 140 145 147 143 139 132 133 132 129 119 114 114 117 144 135 133 151 168 122 122 83 340 340 46 136 175 216 231 240 245 235 248 257 260
270 281 290 295 300 291 282 279 325 73 98 102 122 154 148 146 148 146 141 139 138 137 125 120 117 106 70 59 69 94 104 119 98 85 53 38 20 3 17 15 360 286 252 237 265 248 263 275 277
268 276 280 285 282 274 269 267 84 93 110 124 152 163 150 141 136 134 135 134 132 129 118 99 99 97 86 62 27 58 65 68 90 77 58 18 12 29 19 354 330 301 302 307 307 292 285 278 272
309 308 300 295 291 280 264 235 127 136 134 152 162 154 139 125 120 120 121 123 129 125 116 111 110 105 106 107 86 44 78 91 82 81 77 42 39 36 6 312 305 298 318 333 294 273 262 257 255
301 291 285 288 284 273 262 270 34 129 141 154 147 134 125 124 122 122 125 134 135 131 123 123 126 121 124 124 141 122 98 89 92 103 89 56 43 23 348 311 322 0 328 290 270 280 277 268 265
291 286 284 279 269 252 240 86 353 302 185 156 142 136 133 125 125 126 131 134 133 134 135 148 131 121 117 108 90 77 65 75 90 104 97 71 40 19 342 331 15 4 334 313 288 262 279 301 307
286 277 276 262 256 250 171 146 202 261 257 190 167 147 141 137 134 132 134 132 130 131 130 116 108 122 128 136 134 107 98 83 75 80 83 65 22 15 353 340 356 339 324 314 314 3 355 329 320
305 302 293 266 250 255 174 152 179 224 237 206 174 151 146 149 143 138 134 131 129 127 125 124 122 121 140 143 142 132 128 145 132 102 101 80 21 22 8 319 9 356 326 330 345 339 322 299 285
306 320 319 302 290 291 197 154 174 204 222 206 174 152 154 151 141 139 141 141 137 137 140 143 137 138 152 144 150 125 111 85 128 128 109 91 36 17 335 324 349 324 322 337 328 331 321 308 290
301 311 306 287 264 292 33 107 171 202 218 200 161 152 153 149 149 151 155 154 150 151 151 149 154 157 172 139 117 152 68 289 284 77 126 133 96 352 316 24 339 339 338 311 296 297 297 304 312
307 303 302 295 271 343 51 333 113 237 245 227 176 160 158 161 163 164 167 164 160 163 169 172 167 164 171 160 202 266 188 257 269 80 126 108 41 311 316 322 313 328 316 318 337 314 307 305 307
299 295 303 311 301 284 221 236 225 219 227 215 195 173 167 165 169 172 173 174 173 174 176 169 166 167 164 183 225 264 271 293 319 313 64 78 291 268 270 276 295 314 313 313 311 352 332 312 304
300 309 331 342 339 320 263 202 202 192 214 212 194 184 175 170 174 176 178 178 180 181 178 170 163 164 170 194 230 258 293 324 350 4 352 335 273 244 230 230 232 283 288 300 320 320 313 309 305
296 317 3 2 357 304 249 193 180 178 198 194 182 182 182 174 175 177 178 174 180 182 174 170 162 167 177 198 226 233 279 317 322 317 300 290 285 267 224 220 169 267 285 306 308 300 292 286 293
292 292 328 336 241 246 247 195 141 159 167 167 169 175 177 175 175 175 177 174 179 182 176 167 161 166 178 194 211 224 263 294 270 262 280 301 309 315 17 24 25 306 298 289 279 280 277 279 281
272 282 286 292 286 243 253 128 130 128 130 145 158 165 171 175 175 175 178 179 180 180 174 164 157 163 178 193 188 180 237 269 287 355 352 325 312 316 341 322 285 273 273 279 281 282 276 270 267
286 286 292 295 309 330 36 106 121 131 139 149 157 164 173 177 178 180 182 183 181 176 164 158 150 157 175 184 160 190 217 245 294 319 283 283 306 303 326 323 298 279 271 267 268 266 270 275 272
269 293 302 306 319 324 41 8 147 160 162 163 167 170 175 179 181 181 178 177 167 155 143 141 141 150 163 184 198 216 194 219 240 257 279 293 291 290 291 283 285 284 280 271 262 263 262 261 259
273 263 281 303 311 320 354 240 192 177 173 171 175 178 180 184 180 174 166 154 143 144 146 145 147 157 174 200 196 216 234 258 268 264 263 265 270 276 277 276 276 278 276 273 266 263 265 264 263
312 292 273 275 296 300 314 114 130 152 169 163 172 176 179 180 176 166 154 145 151 159 160 162 167 175 184 191 185 199 215 233 248 263 271 276 274 272 273 273 275 276 278 277 273 271 275 272 269
Height
1514 1513 1514 1516 1512 1506 1505 1488 1475 1473 1473 1476 1477 1479 1489 1494 1499 1513 1516 1517 1518 1521 1525 1529 1532 1535 1537 1540 1542 1544 1546 1548 1549 1550 1552 1553 1554 1554 1555 1556 1557 1557 1558 1559 1560 1560 1561 1561 1562
1514 1514 1516 1513 1505 1512 1513 1490 1480 1473 1474 1475 1478 1482 1490 1499 1505 1511 1515 1518 1520 1523 1526 1530 1533 1536 1539 1541 1543 1545 1547 1549 1550 1551 1553 1554 1555 1555 1556 1557 1558 1559 1559 1560 1561 1561 1562 1563 1563
1513 1515 1515 1502 1494 1499 1499 1484 1475 1472 1474 1475 1479 1486 1494 1503 1508 1512 1517 1520 1522 1525 1528 1531 1534 1537 1540 1542 1544 1546 1548 1550 1551 1552 1553 1554 1555 1556 1557 1558 1559 1560 1560 1561 1562 1563 1563 1564 1564
1515 1515 1509 1497 1491 1483 1478 1474 1472 1472 1476 1476 1479 1491 1500 1505 1509 1513 1517 1521 1523 1526 1529 1532 1535 1538 1541 1543 1545 1547 1549 1550 1552 1553 1554 1555 1556 1557 1558 1559 1560 1560 1561 1562 1563 1563 1564 1565 1565
1516 1511 1501 1495 1489 1481 1476 1473 1471 1473 1478 1477 1481 1494 1503 1507 1510 1514 1518 1522 1525 1528 1530 1534 1537 1540 1542 1544 1546 1548 1550 1551 1552 1554 1555 1556 1556 1557 1558 1559 1560 1561 1561 1562 1563 1564 1564 1565 1566
1514 1503 1500 1496 1486 1479 1477 1476 1475 1477 1483 1482 1487 1495 1506 1510 1512 1515 1519 1523 1527 1529 1531 1535 1538 1541 1543 1545 1547 1549 1550 1552 1553 1554 1555 1556 1557 1557 1558 1559 1560 1560 1561 1562 1563 1564 1565 1565 1566
1511 1502 1498 1489 1481 1478 1475 1475 1475 1480 1483 1482 1486 1493 1506 1510 1514 1517 1521 1525 1528 1530 1532 1536 1539 1542 1544 1546 1548 1549 1551 1552 1553 1554 1555 1556 1557 1558 1558 1559 1560 1560 1561 1562 1563 1563 1564 1565 1566
1508 1503 1496 1486 1480 1476 1473 1476 1476 1477 1483 1483 1485 1492 1504 1509 1514 1518 1522 1526 1529 1532 1534 1537 1540 1542 1545 1546 1548 1550 1551 1552 1553 1554 1555 1556 1557 1558 1558 1559 1559 1560 1561 1561 1562 1563 1563 1564 1564
1505 1504 1499 1485 1478 1475 1476 1479 1478 1480 1483 1486 1487 1490 1500 1508 1514 1519 1523 1527 1530 1533 1536 1538 1540 1543 1545 1547 1548 1550 1551 1552 1553 1554 1554 1555 1556 1557 1557 1558 1558 1559 1559 1560 1561 1561 1562 1562 1563
1500 1500 1491 1481 1478 1477 1479 1481 1481 1481 1484 1490 1493 1498 1504 1510 1515 1519 1523 1527 1531 1534 1537 1539 1542 1544 1546 1548 1548 1549 1550 1551 1552 1553 1554 1554 1555 1556 1557 1557 1557 1557 1558 1558 1559 1560 1560 1561 1561
1494 1492 1487 1483 1481 1481 1481 1480 1481 1482 1491 1493 1497 1503 1507 1512 1517 1520 1523 1527 1531 1535 1538 1540 1542 1544 1547 1548 1549 1550 1551 1551 1552 1553 1553 1554 1555 1555 1555 1555 1555 1556 1556 1556 1557 1557 1558 1559 1559
1493 1490 1488 1486 1484 1483 1482 1482 1486 1489 1497 1498 1501 1507 1509 1512 1516 1520 1523 1528 1531 1535 1538 1540 1542 1544 1546 1548 1549 1550 1551 1551 1552 1552 1552 1553 1554 1554 1554 1554 1554 1554 1555 1555 1555 1555 1555 1556 1557
1491 1489 1487 1486 1485 1484 1483 1485 1489 1496 1498 1501 1506 1509 1510 1513 1517 1520 1524 1527 1531 1534 1537 1539 1541 1543 1545 1547 1548 1549 1550 1551 1551 1551 1551 1552 1552 1552 1552 1552 1552 1552 1552 1552 1552 1552 1552 1553 1554
1490 1489 1487 1486 1485 1484 1484 1487 1491 1500 1500 1505 1506 1509 1511 1514 1518 1521 1524 1528 1531 1534 1537 1539 1540 1542 1544 1546 1547 1549 1550 1550 1550 1550 1550 1550 1550 1550 1550 1550 1550 1550 1550 1550 1550 1550 1550 1550 1550
1491 1490 1489 1486 1486 1487 1486 1491 1496 1498 1501 1504 1507 1509 1512 1515 1518 1521 1525 1528 1531 1534 1536 1538 1540 1542 1543 1545 1547 1548 1549 1550 1550 1549 1549 1549 1549 1549 1549 1549 1549 1548 1548 1548 1548 1547 1547 1547 1547
1489 1492 1497 1490 1487 1487 1490 1505 1503 1500 1502 1503 1506 1509 1512 1515 1518 1521 1525 1528 1530 1533 1536 1538 1541 1542 1543 1544 1546 1547 1548 1549 1549 1550 1548 1548 1548 1548 1547 1547 1547 1546 1546 1546 1546 1546 1545 1545 1544
1493 1499 1500 1494 1486 1484 1490 1508 1503 1501 1504 1504 1506 1509 1512 1516 1519 1521 1524 1527 1530 1533 1535 1537 1539 1541 1543 1544 1546 1547 1547 1548 1549 1549 1548 1547 1547 1546 1546 1545 1545 1544 1544 1544 1544 1544 1543 1542 1541
1493 1491 1492 1491 1484 1482 1489 1501 1500 1501 1503 1503 1505 1508 1512 1516 1519 1521 1524 1527 1530 1532 1535 1537 1538 1541 1543 1544 1545 1546 1547 1548 1548 1548 1546 1546 1545 1545 1544 1544 1543 1542 1542 1542 1541 1541 1540 1539 1539
1482 1486 1491 1487 1480 1482 1488 1494 1499 1500 1501 1503 1503 1506 1511 1515 1518 1521 1524 1527 1530 1532 1534 1537 1538 1540 1542 1544 1545 1546 1547 1547 1547 1546 1545 1544 1543 1543 1542 1541 1540 1540 1540 1539 1539 1538 1537 1537 1537
1481 1486 1488 1484 1479 1482 1490 1497 1499 1501 1500 1501 1502 1505 1510 1514 1517 1521 1524 1527 1529 1532 1534 1536 1538 1540 1541 1543 1544 1544 1545 1545 1546 1545 1544 1542 1541 1540 1541 1539 1538 1538 1537 1537 1536 1536 1535 1534 1535
1482 1486 1483 1483 1478 1481 1491 1501 1500 1500 1500 1501 1501 1504 1508 1512 1516 1520 1523 1526 1529 1531 1533 1535 1537 1539 1540 1541 1542 1543 1543 1543 1544 1543 1542 1541 1539 1539 1538 1536 1536 1535 1535 1535 1534 1534 1533 1532 1532
1484 1476 1476 1479 1484 1495 1495 1515 1505 1500 1499 1500 1501 1503 1506 1510 1515 1518 1522 1525 1527 1530 1532 1534 1535 1537 1538 1539 1540 1541 1541 1542 1542 1541 1540 1538 1537 1536 1535 1534 1533 1533 1532 1532 1532 1532 1530 1530 1530
1475 1472 1477 1484 1493 1500 1500 1510 1507 1498 1501 1497 1498 1501 1504 1508 1513 1516 1520 1523 1526 1529 1531 1532 1533 1535 1536 1537 1537 1538 1539 1539 1538 1537 1537 1536 1535 1534 1533 1532 1531 1530 1530 1530 1529 1528 1528 1527 1528
1469 1475 1485 1494 1507 1519 1499 1503 1505 1495 1493 1492 1494 1498 1502 1506 1510 1514 1518 1521 1525 1527 1529 1530 1531 1533 1534 1534 1535 1535 1536 1535 1535 1534 1533 1533 1533 1533 1532 1531 1529 1528 1528 1527 1526 1526 1525 1525 1524
1472 1485 1509 1522 1527 1519 1485 1488 1491 1479 1478 1483 1488 1494 1499 1503 1508 1512 1516 1519 1522 1525 1527 1528 1529 1530 1531 1532 1533 1533 1533 1532 1532 1532 1532 1531 1531 1531 1530 1529 1527 1526 1525 1524 1523 1523 1522 1522 1521
1474 1479 1501 1512 1508 1496 1484 1486 1479 1471 1475 1480 1485 1490 1496 1501 1505 1509 1513 1516 1519 1522 1524 1526 1527 1528 1529 1530 1530 1530 1530 1530 1530 1530 1529 1528 1528 1528 1527 1525 1524 1523 1522 1521 1521 1520 1519 1519 1518
1472 1474 1469 1479 1482 1494 1494 1483 1477 1472 1475 1479 1483 1488 1493 1498 1502 1506 1510 1513 1516 1519 1521 1523 1525 1526 1527 1528 1528 1528 1527 1527 1527 1526 1526 1526 1525 1524 1524 1522 1521 1520 1519 1518 1517 1516 1516 1515 1515
1466 1466 1470 1479 1496 1502 1502 1498 1489 1479 1476 1477 1480 1485 1490 1495 1499 1503 1507 1510 1514 1516 1519 1521 1522 1524 1525 1525 1525 1526 1525 1525 1524 1524 1523 1522 1521 1521 1520 1519 1517 1516 1515 1515 1514 1513 1512 1512 1511
1471 1470 1470 1472 1476 1494 1510 1509 1478 1473 1471 1473 1477 1482 1486 1491 1495 1499 1504 1508 1511 1514 1516 1518 1520 1521 1522 1522 1523 1523 1522 1522 1521 1521 1520 1519 1518 1517 1516 1515 1514 1513 1512 1511 1510 1509 1508 1508 1507
1469 1468 1469 1483 1484 1479 1490 1494 1465 1466 1466 1469 1473 1478 1483 1487 1492 1496 1501 1505 1509 1512 1514 1516 1517 1518 1519 1520 1520 1520 1519 1519 1518 1518 1517 1516 1515 1514 1513 1512 1511 1509 1508 1507 1506 1505 1504 1503 1502